This is the latest recevied weather packets stored in our database for station/object JF2ZGN-13. If no packets are shown the sender has not sent any weather packets the latest 10 day(s).
| Time | Temp. | Humidity | Pressure | Rain* | Wind** | Luminosity | Snow |
|---|---|---|---|---|---|---|---|
| 1777306684 | 8.89° C | 31% | 903.6 hPa | 0 mm | - | - | - |
| 1777306084 | 8.89° C | 29% | 903.3 hPa | 0 mm | - | - | - |
| 1777305483 | 8.89° C | 24% | 903.5 hPa | 0 mm | - | - | - |
| 1777304883 | 8.89° C | 21% | 903.5 hPa | 0 mm | - | - | - |
| 1777304283 | 8.89° C | 17% | 903.6 hPa | 0 mm | - | - | - |
| 1777303682 | 8.89° C | 11% | 903.7 hPa | 0 mm | - | - | - |
| 1777303082 | 8.89° C | 6% | 903.9 hPa | 0 mm | - | - | - |
| 1777302482 | 8.89° C | 7% | 904 hPa | 0 mm | - | - | - |
| 1777301881 | 8.89° C | 25% | 903.9 hPa | 68.07 mm | - | - | - |
| 1777301281 | 8.89° C | 27% | 903.7 hPa | 68.07 mm | - | - | - |
| 1777300680 | 8.89° C | 30% | 903.8 hPa | 68.07 mm | - | - | - |
| 1777300080 | 9.44° C | 25% | 904 hPa | 68.07 mm | - | - | - |
| 1777299479 | 9.44° C | 27% | 904 hPa | 68.07 mm | - | - | - |
| 1777298879 | 9.44° C | 25% | 904 hPa | 68.07 mm | - | - | - |
| 1777298280 | 8.89° C | 25% | 904 hPa | 68.07 mm | - | - | - |
| 1777297678 | 8.89° C | 25% | 904.1 hPa | 68.07 mm | - | - | - |
| 1777297077 | 8.89° C | 24% | 903.9 hPa | 68.07 mm | - | - | - |
| 1777296478 | 8.89° C | 24% | 904 hPa | 68.07 mm | - | - | - |
| 1777295876 | 8.89° C | 23% | 904 hPa | 68.07 mm | - | - | - |
| 1777295277 | 8.89° C | 25% | 903.9 hPa | 68.07 mm | - | - | - |
| 1777294676 | 9.44° C | 27% | 904 hPa | 68.07 mm | - | - | - |
| 1777294075 | 10° C | 28% | 903.9 hPa | 68.07 mm | - | - | - |
| 1777293475 | 10° C | 27% | 903.9 hPa | 68.07 mm | - | - | - |
| 1777292875 | 10° C | 28% | 904 hPa | 68.07 mm | - | - | - |
| 1777292274 | 9.44° C | 25% | 903.7 hPa | 68.07 mm | - | - | - |
* Rain since midnight (hover to see other rain measurements)
** Current wind speed in m/s (hover to see current wind gust speed)